Location: Little Baddow
(51.7333°N, 0.5667°E)
Time: 12:20:36
(UTC+00:00)

Cosmos 1943 Rocket - Pass Details

Date: 08 November 2025
Orbit: 812 x 841 km, 71.0° (Epoch: 10 December)

Event Time Altitude Azimuth Distance (km) Brightness Sun altitude
Exits shadow 05:47:51 11° 313° (NW) 2,319 4.0 -12.0°
Maximum altitude 05:52:22 32° 254° (WSW) 1,382 2.9 -11.4°
Drops below altitude 10° 05:57:09 10° 193° (SSW) 2,398 4.6 -10.6°
Sets 05:59:47 0° 183° (S) 3,323 5.4 -10.2°
